Location: Naloco
(16.5478°S, 37.1017°E)
Time: 02:03:28
(UTC+00:00)

Sich 1 - Pass Details

Date: 13 August 2020
Orbit: 593 x 626 km, 82.5° (Epoch: 23 September)

Event Time Altitude Azimuth Distance (km) Brightness Sun altitude
Rises 16:01:33 0° 159° (SSE) 2,891 6.2 -9.9°
Reaches altitude 10° 16:04:28 10° 139° (SE) 1,986 5.2 -10.6°
Maximum altitude 16:07:20 17° 98° (E) 1,580 4.5 -11.3°
Drops below altitude 10° 16:10:11 10° 57° (ENE) 1,984 5.2 -12.0°
Sets 16:13:05 0° 37° (NE) 2,887 6.2 -12.6°
